Flag for U.S.A. Weather past 2 weeks in Youngstown, Ohio, U.S.A.

31 °F

Passing clouds.

Feels Like: 25 °F
Forecast: 29 / 45 °F
Wind: 6 mph from Northeast

Location: Youngstown-Warren Regional Airport

Current Time: Nov 29, 2015 at 7:59:47 AM

Latest Report: Nov 29, 2015 at 6:51 AM

Visibility: 10 mi

Pressure: 30.29 "Hg

Humidity: 92%

Dew point: 29 °F

Location of YoungstownLocation

Historic Weather in Youngstown — Graph


Youngstown temperature yesterday

Maximum temperature yesterday: 43 °F (at 12:51 AM)
Minimum temperature yesterday: 36 °F (at 10:51 PM)
Average temperature yesterday: 40 °F

Past Weeks' High & Low Weather Summary

High64 °F (Nov 18, 2:51 PM)97% (Nov 27, 11:51 PM)30.59 "Hg (Nov 27, 11:51 PM)
Low24 °F (Nov 23, 1:51 AM)16% (Nov 20, 12:51 PM)29.67 "Hg (Nov 21, 6:51 PM)
Average45 °F61%30.23 "Hg
* Reported Nov 14 5:51 AM — Nov 29 5:51 AM, Youngstown, Weather by CustomWeather, © 2015

Note: Actual official high and low records may vary slightly from our data, if they occured in-between our weather recording intervals... More about our weather records


Youngstown weather history for previous 24 hours

Time TempWeatherWind HumidityBarometerVisibility
5:51 AM
Sun, Nov 29
32 °FPassing clouds.6 mph88%30.29 "Hg10 mi
4:51 AM33 °FOvercast.7 mph88%30.28 "Hg10 mi
3:51 AM34 °FOvercast.5 mph88%30.28 "Hg10 mi
2:51 AM34 °FMostly cloudy.5 mph88%30.29 "Hg10 mi
1:51 AM35 °FMostly cloudy.6 mph85%30.27 "Hg10 mi
12:51 AM35 °FOvercast.5 mph88%30.29 "Hg10 mi
11:51 PM
Sat, Nov 28
36 °FMostly cloudy.7 mph85%30.27 "Hg10 mi
10:51 PM36 °FOvercast.7 mph89%30.28 "Hg10 mi
9:51 PM37 °FMostly cloudy.5 mph93%30.29 "Hg10 mi
8:51 PM37 °FMostly cloudy.5 mph93%30.28 "Hg10 mi
7:58 PM38 °FMostly cloudy.6 mph90%30.26 "Hg10 mi
6:51 PM39 °FMostly cloudy.7 mph89%30.28 "Hg10 mi
5:59 PM38 °FFog.8 mph93%30.25 "Hg5 mi
4:51 PM39 °FFog.12 mph96%30.27 "Hg1 mi
3:51 PM39 °FFog.7 mph96%30.25 "Hg1 mi
2:51 PM40 °FLow clouds.10 mph93%30.25 "Hg10 mi
1:51 PM41 °FLow clouds.6 mph89%30.25 "Hg10 mi
12:51 PM41 °FLight rain. Low clouds.6 mph89%30.25 "Hg10 mi
11:51 AM41 °FLight rain. Mostly cloudy.7 mph89%30.28 "Hg10 mi
10:51 AM40 °FLight rain. Fog.7 mph93%30.29 "Hg1 mi
9:51 AM41 °FLight rain. Low clouds.8 mph93%30.29 "Hg10 mi
8:51 AM41 °FLight rain. Fog.8 mph93%30.27 "Hg3 mi
7:51 AM41 °FMostly cloudy.8 mph89%30.27 "Hg8 mi
Weather by CustomWeather, © 2015

See weather overviewHow to use our weather pages